TimeCST,TemperatureF,Dew PointF,Humidity,Sea Level PressureIn,VisibilityMPH,Wind Direction,Wind SpeedMPH,Gust SpeedMPH,PrecipitationIn,Events,Conditions,WindDirDegrees,DateUTC
12:52 AM,68.0,64.9,90,29.90,10.0,SSE,13.8,-,N/A,,Clear,160,2011-11-07 06:52:00
1:52 AM,66.9,64.9,93,29.89,10.0,SSE,13.8,-,N/A,,Clear,150,2011-11-07 07:52:00
2:52 AM,66.0,64.9,96,29.89,10.0,SE,9.2,-,N/A,,Clear,140,2011-11-07 08:52:00
3:52 AM,66.9,64.0,90,29.88,10.0,SSE,12.7,-,N/A,,Clear,150,2011-11-07 09:52:00
4:52 AM,66.0,64.0,93,29.87,10.0,SSE,15.0,-,N/A,,Clear,150,2011-11-07 10:52:00
5:52 AM,66.9,64.0,90,29.87,10.0,SSE,16.1,21.9,N/A,,Clear,160,2011-11-07 11:52:00
6:52 AM,66.9,64.0,90,29.87,10.0,SSE,18.4,26.5,N/A,,Clear,160,2011-11-07 12:52:00
7:52 AM,68.0,64.0,87,29.88,10.0,South,21.9,28.8,N/A,,Clear,170,2011-11-07 13:52:00
8:52 AM,70.0,64.0,81,29.88,10.0,South,20.7,34.5,N/A,,Clear,170,2011-11-07 14:52:00
9:52 AM,73.0,64.0,73,29.87,10.0,South,23.0,35.7,N/A,,Clear,170,2011-11-07 15:52:00
10:52 AM,75.9,64.0,67,29.86,10.0,South,29.9,36.8,N/A,,Scattered Clouds,170,2011-11-07 16:52:00
11:52 AM,77.0,64.0,64,29.85,10.0,South,23.0,34.5,N/A,,Partly Cloudy,170,2011-11-07 17:52:00
12:52 PM,79.0,64.0,60,29.81,10.0,South,20.7,29.9,N/A,,Partly Cloudy,170,2011-11-07 18:52:00
1:52 PM,79.0,63.0,58,29.78,10.0,South,18.4,28.8,N/A,,Scattered Clouds,170,2011-11-07 19:52:00
2:52 PM,80.1,63.0,56,29.76,10.0,SSE,25.3,33.4,N/A,,Mostly Cloudy,160,2011-11-07 20:52:00
3:52 PM,79.0,63.0,58,29.74,10.0,South,26.5,35.7,N/A,,Clear,170,2011-11-07 21:52:00
4:52 PM,77.0,63.0,62,29.74,10.0,SSE,28.8,34.5,N/A,,Clear,160,2011-11-07 22:52:00
5:52 PM,75.0,63.0,66,29.76,10.0,SSE,18.4,32.2,N/A,,Clear,160,2011-11-07 23:52:00
6:52 PM,73.0,64.0,73,29.78,10.0,South,21.9,32.2,N/A,,Clear,170,2011-11-08 00:52:00
7:52 PM,72.0,64.0,76,29.78,10.0,South,19.6,27.6,N/A,,Clear,170,2011-11-08 01:52:00
8:52 PM,70.0,64.0,81,29.78,10.0,South,20.7,28.8,N/A,,Clear,170,2011-11-08 02:52:00
9:52 PM,70.0,64.0,81,29.77,10.0,South,18.4,27.6,N/A,,Clear,170,2011-11-08 03:52:00
10:52 PM,69.1,64.0,84,29.76,10.0,South,12.7,21.9,N/A,,Clear,170,2011-11-08 04:52:00
11:38 PM,69.8,64.4,83,29.83,10.0,South,17.3,27.6,N/A,,Mostly Cloudy,170,2011-11-08 05:38:00
11:52 PM,69.1,64.0,84,29.76,10.0,South,19.6,29.9,N/A,,Overcast,170,2011-11-08 05:52:00